Regional Weather Roundup
Issued by NWS Jackson, KY

Home | Current Version | Previous Version | Graphics & Text | Print | Product List | Glossary On
Versions: 1 2 3 4 5 6 7 8 9 10 11 12 13 14 15 16 17 18 19 20 21 22 23 24 25 26 27 28 29 30 31 32 33 34 35 36 37 38 39 40 41 42 43 44 45 46 47 48 49 50
000
ASUS43 KJKL 280510
RWRJKL

EAST KENTUCKY HOURLY WEATHER ROUNDUP
NATIONAL WEATHER SERVICE JACKSON KY
100 AM EDT THU MAY 28 2015

NOTE: "FAIR" INDICATES FEW OR NO CLOUDS BELOW 12,000 FEET WITH
NO SIGNIFICANT WEATHER AND/OR OBSTRUCTIONS TO VISIBILITY.

* THESE REPORTS ARE NOT UNDER NWS QUALITY CONTROL AND MAY NOT
  REPORT WEATHER SUCH AS PRECIPITATION AND FOG.

KYZ079-080-083-085-087-088-110-112-115-119-120-280600
...EASTERN KENTUCKY...

CITY           SKY/WX    TMP DP  RH WIND       PRES   REMARKS
JACKSON        CLOUDY    67  61  81 CALM      30.20S
LONDON         PTCLDY    64  58  80 CALM      30.20S
SOMERSET*      MOCLDY    59  59 100 CALM      30.21S FOG
MONTICELLO*    MOCLDY    62  62 100 CALM      30.22F
MIDDLESBORO*   CLOUDY    65  65 100 CALM      30.21F
HARLAN APT*    CLOUDY    66  64  94 CALM      30.21F
HAZARD APT*    MOCLDY    68  64  88 NW3       30.20R
BLACK MTN*       N/A     61  57  88 SW7         N/A
PIKEVILLE APT* CLEAR     72  61  68 CALM      30.20R
BIG SANDY*     MOCLDY    68  61  80 CALM      30.19S
MOREHEAD APT*  MOCLDY    61  61 100 CALM      30.20S
$$

KYZ035-036-041-042-044-050-067-078-099-280600
...CENTRAL KENTUCKY...

CITY           SKY/WX    TMP DP  RH WIND       PRES   REMARKS
MT STERLING*   MOCLDY    61  61 100 SW5       30.20R
FLEMING/MASON* CLEAR     61  59  94 SW3       30.19R
DANVILLE*      MOCLDY    61  61 100 SW3       30.19F
RICHMOND*      MOCLDY    63  59  88 S6        30.18F
LEXINGTON      MOCLDY    62  60  93 SW6       30.17F
FRANKFORT      CLOUDY    64  60  87 SW6       30.16R
$$

KYZ091>093-OHZ055-061-077-WVZ005-015-034-035-042-280600
...SOUTHERN OHIO/WEST VIRGINIA...

CITY           SKY/WX    TMP DP  RH WIND       PRES   REMARKS
COVINGTON      CLOUDY    65  61  87 SW6       30.16S
COLUMBUS       MOCLDY    69  58  67 SW8       30.14R
DAYTON         CLOUDY    69  62  78 SW10      30.15S
WILMINGTON     MOCLDY    65  58  78 SW8       30.15R
HUNTINGTON     MOCLDY    67  59  75 W3        30.17R
CHARLESTON     PTCLDY    65  63  93 CALM      30.17R
PINEVILLE*     PTCLDY    62  62 100 MISG      30.27S
BECKLEY        PTCLDY    64  57  78 CALM      30.26R
BLUEFIELD      PTCLDY    68  56  65 CALM      30.28S
$$

VAZ002-007-008-TNZ017-027-036-066-071-280600
...SOUTHWEST VIRGINIA/EAST TENNESSEE...

CITY           SKY/WX    TMP DP  RH WIND       PRES   REMARKS
WISE*          CLOUDY    68  55  64 S6        30.27F
JONESVILLE*    CLOUDY    66  64  94 CALM      30.23F
ABINGDON*      CLOUDY    65  60  84 CALM      30.25S
BRISTOL        MOCLDY    65  60  84 CALM      30.21F
KNOXVILLE      CLOUDY    72  62  71 SW7       30.20S
OAK RIDGE      CLOUDY    72  67  84 CALM      30.21S
CROSSVILLE     CLOUDY    68  62  81 VRB3      30.23F
NASHVILLE      CLOUDY    68  66  93 S6        30.17F
$$

...KEY TO REMARKS...
VSB - VISIBILITY IN MILES
WCI - WIND CHILL INDEX
HX  - HEAT INDEX

$$



USA.gov is the U.S. government's official web portal to all federal, state and local government web resources and services.